Location: Griffin Ranch
(33.6186°N, 110.6622°W)
Time: 20:32:34
(UTC-07:00)

Cosmos 1812 - Visible Passes

Search period start: 25 May 2015 00:00
Search period end: 04 June 2015 00:00
Orbit: 528 x 532 km, 82.5° (Epoch: 24 May)

Date Brightness Start Highest point End Pass type
(mag) Time Alt. Az. Time Alt. Az. Time Alt. Az.
25 May 5.9 20:25:10 10° WSW 20:27:31 15° WNW 20:29:44 10° NW visible
26 May 5.9 20:14:18 10° WSW 20:16:51 16° WNW 20:19:16 10° NW visible
27 May 5.8 20:03:27 10° WSW 20:06:11 17° WNW 20:08:47 10° NNW visible
28 May 5.8 19:52:38 10° WSW 19:55:30 19° WNW 19:58:16 10° NNW visible
